QPF
0.03 0.02 0.02 0.02 0.01 0.01 0.01 0.01 0.01 0.00 0.00 0.00 0.00 0.00 0.00 0.00 0.00 0.01 0.01 0.01 0.01 0.01 0.03 0.03 0.04 0.03 0.03 0.03 0.02 0.03 0.03 0.03 0.03 0.04 0.05 0.04 0.04 0.03 0.04 0.04 0.03 0.04 0.03
0.05 0.03 0.03 0.04 0.03 0.01 0.01 0.01 0.01 0.00 0.00 0.00 0.00 0.00 0.00 0.00 0.00 0.00 0.01 0.01 0.01 0.00 0.01 0.03 0.04 0.05 0.06 0.05 0.04 0.03 0.03 0.03 0.03 0.04 0.05 0.05 0.05 0.05 0.04 0.04 0.03 0.03 0.03
0.05 0.04 0.03 0.03 0.03 0.02 0.01 0.01 0.01 0.00 0.00 0.00 0.00 0.00 0.00 0.00 0.00 0.00 0.00 0.01 0.00 0.00 0.00 0.01 0.03 0.03 0.04 0.06 0.06 0.06 0.05 0.07 0.06 0.05 0.05 0.05 0.06 0.07 0.07 0.06 0.05 0.05 0.05
0.07 0.06 0.04 0.02 0.02 0.02 0.02 0.01 0.01 0.00 0.00 0.00 0.00 0.00 0.00 0.00 0.00 0.00 0.00 0.00 0.00 0.00 0.00 0.01 0.01 0.02 0.03 0.04 0.06 0.07 0.06 0.06 0.07 0.07 0.07 0.06 0.07 0.07 0.06 0.06 0.06 0.07 0.09
0.07 0.07 0.06 0.04 0.03 0.02 0.01 0.01 0.01 0.00 0.00 0.00 0.00 0.00 0.00 0.00 0.00 0.00 0.00 0.00 0.00 0.01 0.01 0.01 0.02 0.02 0.03 0.04 0.06 0.06 0.06 0.05 0.05 0.07 0.09 0.08 0.08 0.08 0.07 0.06 0.05 0.05 0.05
0.08 0.07 0.05 0.04 0.04 0.04 0.02 0.01 0.01 0.00 0.00 0.00 0.00 0.00 0.00 0.00 0.00 0.00 0.00 0.01 0.01 0.01 0.01 0.02 0.02 0.02 0.02 0.03 0.04 0.04 0.05 0.05 0.04 0.05 0.06 0.07 0.08 0.08 0.09 0.09 0.07 0.06 0.05
0.08 0.08 0.06 0.04 0.04 0.04 0.04 0.02 0.01 0.01 0.00 0.00 0.00 0.00 0.00 0.00 0.00 0.00 0.00 0.00 0.01 0.01 0.01 0.02 0.02 0.02 0.02 0.02 0.03 0.03 0.03 0.04 0.04 0.03 0.04 0.05 0.07 0.09 0.11 0.11 0.11 0.10 0.09
0.07 0.10 0.08 0.05 0.04 0.04 0.05 0.04 0.03 0.02 0.01 0.01 0.00 0.00 0.00 0.00 0.00 0.00 0.00 0.00 0.01 0.01 0.01 0.02 0.03 0.04 0.04 0.04 0.03 0.03 0.03 0.03 0.03 0.03 0.04 0.04 0.05 0.06 0.10 0.14 0.16 0.15 0.12
0.07 0.10 0.11 0.07 0.04 0.04 0.05 0.04 0.03 0.02 0.01 0.01 0.01 0.01 0.00 0.01 0.00 0.00 0.00 0.00 0.00 0.00 0.01 0.01 0.02 0.02 0.03 0.02 0.02 0.01 0.02 0.02 0.02 0.03 0.03 0.03 0.04 0.04 0.06 0.08 0.14 0.19 0.19
0.08 0.10 0.12 0.09 0.06 0.05 0.05 0.05 0.03 0.02 0.01 0.01 0.01 0.00 0.01 0.01 0.01 0.00 0.00 0.00 0.01 0.01 0.01 0.01 0.02 0.02 0.02 0.03 0.02 0.02 0.02 0.02 0.02 0.02 0.03 0.03 0.03 0.04 0.05 0.06 0.08 0.11 0.16
0.08 0.09 0.12 0.12 0.09 0.07 0.06 0.06 0.04 0.02 0.01 0.01 0.01 0.01 0.01 0.01 0.01 0.01 0.01 0.00 0.01 0.01 0.01 0.01 0.01 0.01 0.02 0.02 0.02 0.02 0.03 0.02 0.02 0.02 0.03 0.04 0.06 0.07 0.07 0.07 0.08 0.09 0.11
0.05 0.06 0.09 0.12 0.12 0.10 0.08 0.07 0.06 0.04 0.02 0.01 0.00 0.00 0.00 0.00 0.00 0.00 0.01 0.01 0.01 0.01 0.01 0.01 0.01 0.01 0.01 0.01 0.01 0.02 0.01 0.02 0.02 0.02 0.02 0.03 0.04 0.06 0.06 0.06 0.06 0.07 0.08
0.04 0.05 0.05 0.08 0.10 0.10 0.10 0.08 0.07 0.06 0.03 0.02 0.01 0.01 0.00 0.00 0.00 0.01 0.01 0.01 0.01 0.01 0.01 0.01 0.01 0.01 0.01 0.01 0.01 0.02 0.01 0.02 0.02 0.02 0.02 0.02 0.02 0.02 0.02 0.03 0.04 0.05 0.06
0.06 0.06 0.05 0.04 0.06 0.07 0.07 0.07 0.07 0.06 0.04 0.03 0.02 0.01 0.01 0.01 0.01 0.01 0.01 0.01 0.01 0.00 0.00 0.00 0.00 0.01 0.01 0.01 0.01 0.01 0.01 0.01 0.01 0.01 0.02 0.02 0.02 0.01 0.02 0.02 0.03 0.05 0.06
0.05 0.06 0.07 0.05 0.03 0.04 0.04 0.04 0.05 0.05 0.04 0.02 0.02 0.01 0.01 0.01 0.01 0.01 0.01 0.01 0.01 0.01 0.00 0.00 0.00 0.00 0.00 0.00 0.00 0.00 0.00 0.01 0.01 0.01 0.01 0.01 0.01 0.01 0.01 0.01 0.01 0.02 0.03
0.03 0.04 0.06 0.06 0.04 0.03 0.03 0.03 0.03 0.03 0.03 0.02 0.02 0.01 0.01 0.01 0.01 0.01 0.01 0.01 0.01 0.01 0.01 0.00 0.00 0.00 0.00 0.00 0.00 0.00 0.00 0.00 0.00 0.00 0.01 0.01 0.00 0.00 0.01 0.01 0.01 0.01 0.01
0.01 0.03 0.04 0.04 0.04 0.03 0.03 0.03 0.03 0.02 0.02 0.02 0.01 0.01 0.01 0.01 0.00 0.00 0.00 0.00 0.01 0.01 0.01 0.00 0.00 0.00 0.00 0.00 0.00 0.00 0.00 0.00 0.00 0.00 0.01 0.00 0.00 0.00 0.00 0.01 0.01 0.01 0.01
0.01 0.01 0.02 0.04 0.04 0.03 0.03 0.03 0.02 0.02 0.02 0.02 0.01 0.01 0.01 0.00 0.00 0.00 0.00 0.00 0.00 0.00 0.01 0.00 0.00 0.00 0.00 0.00 0.00 0.00 0.00 0.00 0.00 0.00 0.00 0.00 0.00 0.00 0.00 0.00 0.01 0.01 0.01
0.01 0.00 0.01 0.02 0.03 0.03 0.02 0.02 0.02 0.02 0.02 0.02 0.02 0.01 0.01 0.00 0.00 0.00 0.00 0.00 0.00 0.00 0.00 0.01 0.00 0.00 0.00 0.00 0.00 0.00 0.00 0.00 0.00 0.00 0.00 0.00 0.00 0.00 0.00 0.00 0.01 0.01 0.01
0.01 0.01 0.01 0.01 0.02 0.02 0.02 0.02 0.01 0.01 0.01 0.01 0.01 0.01 0.01 0.00 0.00 0.00 0.00 0.00 0.00 0.00 0.00 0.01 0.00 0.00 0.00 0.00 0.00 0.00 0.00 0.00 0.00 0.00 0.00 0.00 0.00 0.00 0.01 0.01 0.01 0.01 0.01
0.02 0.01 0.01 0.01 0.01 0.01 0.01 0.01 0.01 0.01 0.01 0.01 0.01 0.01 0.01 0.01 0.00 0.00 0.00 0.00 0.00 0.00 0.01 0.01 0.01 0.01 0.01 0.00 0.00 0.00 0.00 0.01 0.01 0.00 0.01 0.01 0.01 0.01 0.01 0.01 0.01 0.01 0.01
0.02 0.02 0.01 0.01 0.01 0.01 0.01 0.01 0.01 0.01 0.01 0.01 0.01 0.00 0.00 0.00 0.00 0.00 0.00 0.00 0.00 0.01 0.01 0.01 0.01 0.01 0.00 0.00 0.01 0.01 0.01 0.01 0.01 0.01 0.01 0.01 0.01 0.01 0.02 0.01 0.01 0.01 0.01
0.02 0.02 0.02 0.01 0.01 0.01 0.01 0.01 0.01 0.01 0.01 0.01 0.01 0.00 0.00 0.00 0.00 0.00 0.00 0.00 0.00 0.00 0.01 0.01 0.01 0.01 0.01 0.01 0.01 0.01 0.01 0.01 0.01 0.01 0.02 0.02 0.02 0.01 0.01 0.02 0.01 0.01 0.01
0.02 0.02 0.01 0.01 0.01 0.01 0.01 0.00 0.00 0.00 0.00 0.00 0.00 0.00 0.00 0.00 0.00 0.00 0.00 0.00 0.00 0.00 0.00 0.00 0.01 0.01 0.01 0.01 0.01 0.01 0.02 0.02 0.02 0.02 0.02 0.03 0.02 0.02 0.01 0.02 0.02 0.02 0.02
0.01 0.02 0.02 0.01 0.01 0.01 0.01 0.00 0.00 0.00 0.00 0.00 0.00 0.00 0.00 0.00 0.00 0.01 0.01 0.01 0.00 0.00 0.00 0.00 0.00 0.01 0.01 0.01 0.01 0.01 0.02 0.02 0.02 0.01 0.01 0.02 0.02 0.02 0.03 0.03 0.02 0.02 0.03
0.01 0.01 0.02 0.01 0.01 0.01 0.01 0.01 0.00 0.00 0.00 0.00 0.00 0.00 0.00 0.00 0.01 0.01 0.01 0.01 0.01 0.01 0.00 0.01 0.01 0.01 0.01 0.01 0.02 0.01 0.02 0.02 0.02 0.02 0.01 0.02 0.02 0.04 0.05 0.04 0.03 0.02 0.03
MSLP
1020.07 1019.85 1019.60 1019.31 1018.99 1018.63 1018.26 1017.88 1017.52 1017.18 1016.90 1016.66 1016.49 1016.36 1016.27 1016.21 1016.15 1016.06 1015.94 1015.75 1015.50 1015.20 1014.84 1014.46 1014.09 1013.74 1013.43 1013.18 1012.99 1012.83 1012.68 1012.54 1012.38 1012.20 1012.00 1011.79 1011.60 1011.43 1011.32 1011.27 1011.29 1011.35 1011.46
1020.31 1020.06 1019.77 1019.46 1019.11 1018.74 1018.36 1017.99 1017.65 1017.35 1017.11 1016.93 1016.82 1016.76 1016.74 1016.74 1016.75 1016.72 1016.65 1016.52 1016.32 1016.05 1015.73 1015.37 1015.00 1014.64 1014.32 1014.04 1013.80 1013.59 1013.40 1013.21 1013.01 1012.79 1012.54 1012.29 1012.03 1011.80 1011.61 1011.47 1011.38 1011.35 1011.36
1020.60 1020.33 1020.02 1019.68 1019.31 1018.93 1018.54 1018.18 1017.86 1017.59 1017.39 1017.26 1017.19 1017.18 1017.22 1017.27 1017.32 1017.35 1017.33 1017.25 1017.10 1016.89 1016.62 1016.31 1015.97 1015.63 1015.31 1015.00 1014.73 1014.48 1014.24 1014.00 1013.75 1013.48 1013.19 1012.89 1012.58 1012.29 1012.02 1011.80 1011.61 1011.48 1011.39
1020.92 1020.65 1020.34 1019.99 1019.61 1019.21 1018.82 1018.46 1018.15 1017.90 1017.72 1017.61 1017.57 1017.59 1017.64 1017.72 1017.79 1017.85 1017.88 1017.85 1017.77 1017.63 1017.43 1017.19 1016.91 1016.60 1016.29 1015.98 1015.68 1015.39 1015.10 1014.80 1014.50 1014.19 1013.85 1013.51 1013.16 1012.82 1012.49 1012.19 1011.93 1011.72 1011.54
1021.24 1021.00 1020.70 1020.36 1019.98 1019.58 1019.20 1018.84 1018.53 1018.27 1018.09 1017.98 1017.93 1017.93 1017.98 1018.05 1018.13 1018.20 1018.25 1018.28 1018.27 1018.20 1018.09 1017.93 1017.72 1017.47 1017.19 1016.89 1016.57 1016.24 1015.90 1015.56 1015.20 1014.84 1014.47 1014.09 1013.70 1013.32 1012.95 1012.61 1012.29 1012.02 1011.78
1021.51 1021.32 1021.06 1020.75 1020.39 1020.01 1019.63 1019.27 1018.95 1018.69 1018.48 1018.34 1018.25 1018.21 1018.22 1018.25 1018.31 1018.38 1018.45 1018.52 1018.57 1018.59 1018.57 1018.50 1018.37 1018.19 1017.96 1017.67 1017.35 1016.99 1016.61 1016.21 1015.81 1015.40 1014.99 1014.58 1014.17 1013.76 1013.37 1013.00 1012.65 1012.34 1012.07
1021.69 1021.56 1021.36 1021.10 1020.79 1020.45 1020.08 1019.73 1019.40 1019.11 1018.87 1018.68 1018.54 1018.45 1018.39 1018.37 1018.39 1018.44 1018.52 1018.61 1018.71 1018.80 1018.87 1018.89 1018.86 1018.75 1018.57 1018.31 1017.99 1017.61 1017.20 1016.76 1016.31 1015.86 1015.41 1014.97 1014.54 1014.12 1013.71 1013.33 1012.98 1012.66 1012.38
1021.75 1021.69 1021.57 1021.37 1021.12 1020.83 1020.50 1020.16 1019.83 1019.53 1019.26 1019.02 1018.83 1018.67 1018.55 1018.48 1018.44 1018.46 1018.52 1018.63 1018.77 1018.92 1019.05 1019.16 1019.20 1019.16 1019.03 1018.81 1018.50 1018.12 1017.69 1017.22 1016.73 1016.25 1015.77 1015.30 1014.85 1014.41 1014.00 1013.62 1013.27 1012.95 1012.67
1021.69 1021.69 1021.65 1021.53 1021.35 1021.12 1020.84 1020.54 1020.23 1019.92 1019.64 1019.37 1019.14 1018.93 1018.76 1018.63 1018.55 1018.53 1018.57 1018.67 1018.82 1019.00 1019.18 1019.34 1019.45 1019.46 1019.38 1019.20 1018.91 1018.54 1018.09 1017.61 1017.10 1016.59 1016.09 1015.60 1015.13 1014.68 1014.26 1013.87 1013.51 1013.19 1012.91
1021.51 1021.58 1021.60 1021.56 1021.46 1021.29 1021.08 1020.83 1020.56 1020.28 1020.00 1019.74 1019.49 1019.25 1019.05 1018.88 1018.76 1018.71 1018.72 1018.80 1018.93 1019.12 1019.32 1019.50 1019.64 1019.69 1019.65 1019.49 1019.23 1018.88 1018.45 1017.97 1017.45 1016.93 1016.40 1015.89 1015.41 1014.94 1014.50 1014.09 1013.72 1013.39 1013.10
1021.25 1021.37 1021.45 1021.48 1021.45 1021.36 1021.21 1021.03 1020.81 1020.58 1020.35 1020.11 1019.87 1019.65 1019.44 1019.26 1019.11 1019.02 1019.00 1019.04 1019.14 1019.30 1019.48 1019.65 1019.79 1019.86 1019.84 1019.71 1019.48 1019.15 1018.75 1018.28 1017.77 1017.25 1016.72 1016.21 1015.70 1015.21 1014.75 1014.31 1013.91 1013.55 1013.23
1020.97 1021.12 1021.24 1021.32 1021.35 1021.32 1021.25 1021.13 1020.99 1020.82 1020.65 1020.46 1020.27 1020.08 1019.89 1019.72 1019.57 1019.45 1019.39 1019.38 1019.43 1019.53 1019.66 1019.80 1019.91 1019.97 1019.95 1019.84 1019.64 1019.34 1018.97 1018.53 1018.05 1017.55 1017.03 1016.51 1015.99 1015.48 1014.99 1014.52 1014.08 1013.68 1013.31
1020.66 1020.83 1020.99 1021.11 1021.18 1021.21 1021.20 1021.15 1021.07 1020.98 1020.88 1020.76 1020.64 1020.50 1020.36 1020.21 1020.06 1019.93 1019.83 1019.77 1019.76 1019.79 1019.85 1019.92 1019.98 1020.01 1019.98 1019.88 1019.69 1019.43 1019.09 1018.69 1018.25 1017.77 1017.27 1016.76 1016.24 1015.73 1015.21 1014.71 1014.23 1013.78 1013.35
1020.36 1020.54 1020.71 1020.85 1020.96 1021.03 1021.06 1021.07 1021.06 1021.03 1021.01 1020.97 1020.92 1020.85 1020.76 1020.64 1020.52 1020.38 1020.25 1020.14 1020.06 1020.01 1019.99 1019.99 1019.99 1019.97 1019.91 1019.80 1019.63 1019.39 1019.09 1018.73 1018.33 1017.88 1017.41 1016.92 1016.41 1015.90 1015.38 1014.85 1014.34 1013.84 1013.36
1020.03 1020.22 1020.41 1020.56 1020.69 1020.78 1020.85 1020.89 1020.93 1020.97 1021.00 1021.03 1021.05 1021.05 1021.02 1020.96 1020.85 1020.73 1020.58 1020.43 1020.29 1020.17 1020.08 1020.00 1019.93 1019.86 1019.76 1019.63 1019.46 1019.24 1018.96 1018.63 1018.26 1017.85 1017.41 1016.95 1016.46 1015.96 1015.45 1014.92 1014.40 1013.87 1013.35
1019.66 1019.86 1020.05 1020.22 1020.35 1020.46 1020.54 1020.61 1020.68 1020.76 1020.85 1020.93 1021.02 1021.08 1021.10 1021.09 1021.03 1020.92 1020.77 1020.60 1020.42 1020.25 1020.09 1019.95 1019.82 1019.70 1019.56 1019.41 1019.22 1019.00 1018.73 1018.42 1018.07 1017.69 1017.27 1016.84 1016.38 1015.90 1015.40 1014.89 1014.37 1013.85 1013.32
1019.20 1019.42 1019.62 1019.79 1019.93 1020.05 1020.14 1020.22 1020.31 1020.42 1020.54 1020.67 1020.80 1020.91 1021.00 1021.03 1021.01 1020.93 1020.81 1020.64 1020.45 1020.26 1020.06 1019.88 1019.70 1019.53 1019.36 1019.18 1018.97 1018.73 1018.45 1018.14 1017.79 1017.41 1017.01 1016.59 1016.15 1015.70 1015.23 1014.75 1014.26 1013.76 1013.24
1018.64 1018.88 1019.09 1019.27 1019.42 1019.54 1019.64 1019.73 1019.84 1019.96 1020.10 1020.26 1020.43 1020.58 1020.71 1020.80 1020.83 1020.79 1020.70 1020.57 1020.39 1020.20 1020.00 1019.80 1019.60 1019.40 1019.20 1018.98 1018.74 1018.48 1018.17 1017.84 1017.48 1017.09 1016.68 1016.26 1015.83 1015.40 1014.96 1014.51 1014.06 1013.59 1013.11
1017.99 1018.24 1018.46 1018.66 1018.81 1018.94 1019.05 1019.16 1019.27 1019.41 1019.56 1019.74 1019.94 1020.13 1020.30 1020.43 1020.51 1020.53 1020.49 1020.39 1020.26 1020.09 1019.91 1019.72 1019.52 1019.31 1019.09 1018.85 1018.59 1018.29 1017.95 1017.58 1017.19 1016.77 1016.34 1015.91 1015.47 1015.04 1014.62 1014.20 1013.78 1013.35 1012.91
1017.26 1017.52 1017.75 1017.96 1018.13 1018.28 1018.40 1018.52 1018.65 1018.79 1018.97 1019.16 1019.38 1019.60 1019.80 1019.97 1020.09 1020.16 1020.17 1020.13 1020.05 1019.93 1019.79 1019.63 1019.45 1019.25 1019.03 1018.77 1018.49 1018.16 1017.79 1017.39 1016.95 1016.50 1016.04 1015.57 1015.12 1014.68 1014.25 1013.84 1013.44 1013.04 1012.63
1016.50 1016.75 1017.00 1017.22 1017.41 1017.57 1017.71 1017.85 1017.99 1018.15 1018.34 1018.55 1018.78 1019.02 1019.24 1019.44 1019.60 1019.72 1019.78 1019.79 1019.76 1019.70 1019.60 1019.48 1019.33 1019.16 1018.95 1018.71 1018.41 1018.07 1017.68 1017.25 1016.78 1016.29 1015.80 1015.30 1014.81 1014.34 1013.90 1013.47 1013.07 1012.67 1012.29
1015.74 1015.99 1016.23 1016.46 1016.66 1016.84 1017.00 1017.16 1017.33 1017.50 1017.71 1017.93 1018.17 1018.41 1018.65 1018.87 1019.05 1019.20 1019.30 1019.35 1019.37 1019.35 1019.31 1019.23 1019.13 1018.99 1018.81 1018.58 1018.30 1017.97 1017.58 1017.14 1016.66 1016.15 1015.62 1015.09 1014.57 1014.07 1013.59 1013.13 1012.70 1012.29 1011.90
1015.03 1015.26 1015.49 1015.72 1015.93 1016.12 1016.30 1016.48 1016.66 1016.86 1017.07 1017.31 1017.55 1017.80 1018.04 1018.25 1018.45 1018.60 1018.72 1018.80 1018.85 1018.87 1018.86 1018.83 1018.77 1018.67 1018.53 1018.34 1018.10 1017.79 1017.43 1017.01 1016.54 1016.03 1015.50 1014.96 1014.41 1013.87 1013.35 1012.85 1012.38 1011.93 1011.50
1014.40 1014.60 1014.81 1015.02 1015.23 1015.43 1015.62 1015.81 1016.01 1016.22 1016.44 1016.67 1016.92 1017.16 1017.38 1017.59 1017.77 1017.93 1018.04 1018.13 1018.20 1018.24 1018.26 1018.26 1018.23 1018.18 1018.08 1017.94 1017.75 1017.49 1017.18 1016.81 1016.38 1015.91 1015.40 1014.86 1014.31 1013.75 1013.19 1012.65 1012.12 1011.61 1011.13
1013.85 1014.01 1014.20 1014.38 1014.57 1014.77 1014.96 1015.15 1015.36 1015.57 1015.79 1016.03 1016.26 1016.48 1016.69 1016.88 1017.04 1017.17 1017.28 1017.36 1017.42 1017.47 1017.50 1017.52 1017.53 1017.51 1017.47 1017.38 1017.25 1017.06 1016.82 1016.51 1016.15 1015.74 1015.28 1014.77 1014.23 1013.67 1013.09 1012.50 1011.92 1011.35 1010.81
1013.38 1013.50 1013.65 1013.80 1013.97 1014.14 1014.31 1014.50 1014.70 1014.91 1015.12 1015.34 1015.56 1015.77 1015.96 1016.12 1016.26 1016.36 1016.44 1016.51 1016.56 1016.60 1016.63 1016.67 1016.70 1016.72 1016.72 1016.69 1016.62 1016.51 1016.34 1016.12 1015.84 1015.50 1015.11 1014.65 1014.15 1013.60 1013.01 1012.40 1011.77 1011.15 1010.54
Thickness
5663 5663 5663 5663 5663 5663 5664 5665 5666 5667 5667 5668 5668 5668 5669 5669 5669 5669 5669 5667 5667 5667 5667 5667 5668 5668 5668 5668 5668 5668 5668 5667 5667 5667 5667 5667 5666 5666 5665 5664 5664 5663 5662
5656 5656 5656 5656 5656 5656 5657 5658 5659 5659 5660 5661 5661 5661 5661 5662 5662 5662 5662 5661 5659 5659 5659 5660 5660 5660 5660 5660 5660 5660 5660 5660 5660 5660 5660 5660 5660 5660 5659 5659 5658 5657 5657
5648 5648 5648 5649 5649 5649 5651 5651 5652 5653 5653 5653 5654 5653 5654 5654 5654 5654 5653 5653 5652 5651 5650 5650 5651 5651 5651 5652 5652 5652 5652 5652 5652 5652 5652 5653 5653 5653 5653 5653 5652 5652 5651
5640 5640 5641 5641 5641 5642 5643 5644 5645 5646 5646 5646 5646 5646 5646 5646 5646 5645 5645 5644 5643 5643 5642 5641 5641 5641 5642 5642 5643 5644 5644 5644 5644 5644 5644 5644 5645 5646 5646 5646 5646 5646 5645
5631 5632 5633 5633 5634 5635 5636 5636 5637 5638 5638 5637 5637 5637 5638 5638 5637 5636 5635 5634 5633 5633 5633 5632 5632 5632 5632 5632 5633 5634 5635 5635 5635 5635 5636 5636 5637 5638 5638 5639 5639 5639 5639
5623 5624 5625 5625 5626 5627 5627 5628 5628 5628 5629 5628 5629 5629 5629 5629 5628 5627 5626 5625 5623 5623 5623 5623 5623 5623 5622 5622 5623 5623 5624 5625 5625 5626 5626 5627 5628 5629 5630 5631 5631 5632 5632
5614 5616 5617 5618 5618 5619 5619 5619 5620 5620 5620 5619 5620 5621 5621 5621 5620 5618 5616 5615 5614 5613 5612 5612 5612 5613 5613 5613 5612 5613 5613 5614 5615 5616 5617 5618 5619 5620 5622 5623 5624 5624 5625
5606 5607 5608 5610 5610 5610 5610 5610 5610 5611 5610 5609 5610 5612 5614 5614 5612 5608 5606 5605 5604 5603 5602 5602 5602 5602 5602 5603 5602 5602 5602 5603 5604 5606 5607 5608 5610 5611 5612 5614 5615 5616 5617
5598 5598 5599 5600 5600 5601 5602 5601 5601 5601 5602 5600 5599 5600 5603 5605 5601 5600 5597 5596 5594 5593 5592 5592 5591 5591 5591 5592 5592 5591 5591 5591 5593 5595 5597 5598 5600 5601 5603 5604 5605 5607 5608
5590 5590 5591 5591 5592 5592 5592 5592 5592 5591 5591 5591 5590 5587 5587 5588 5587 5590 5589 5586 5584 5582 5582 5581 5581 5581 5580 5580 5580 5580 5580 5581 5582 5584 5586 5588 5590 5592 5593 5594 5595 5597 5598
5581 5582 5582 5583 5583 5583 5582 5582 5582 5581 5581 5581 5580 5578 5576 5575 5575 5576 5580 5578 5575 5573 5571 5570 5570 5570 5570 5569 5570 5569 5569 5570 5571 5573 5575 5577 5579 5581 5583 5584 5585 5587 5588
5573 5573 5573 5573 5574 5573 5572 5572 5571 5571 5570 5569 5568 5567 5566 5566 5565 5564 5566 5566 5565 5564 5561 5560 5560 5559 5559 5559 5559 5557 5558 5558 5560 5562 5564 5566 5568 5569 5571 5572 5574 5576 5577
5565 5565 5564 5564 5564 5564 5562 5561 5561 5560 5559 5558 5557 5555 5554 5553 5552 5551 5552 5554 5554 5554 5552 5551 5550 5549 5548 5548 5548 5546 5547 5548 5549 5550 5552 5554 5556 5557 5558 5560 5562 5563 5565
5557 5556 5555 5555 5554 5554 5553 5552 5551 5550 5549 5548 5546 5544 5543 5542 5540 5540 5540 5540 5543 5545 5544 5544 5541 5539 5537 5536 5536 5536 5537 5537 5537 5539 5540 5542 5543 5544 5546 5547 5549 5551 5552
5546 5546 5546 5545 5545 5544 5543 5542 5541 5540 5539 5537 5535 5533 5532 5531 5529 5528 5527 5527 5528 5534 5538 5535 5531 5528 5526 5525 5525 5525 5526 5527 5527 5527 5529 5530 5531 5533 5534 5536 5537 5539 5541
5536 5536 5536 5536 5535 5534 5533 5531 5530 5529 5528 5527 5524 5522 5521 5520 5518 5516 5515 5515 5514 5516 5521 5522 5519 5517 5515 5514 5514 5515 5516 5516 5516 5517 5517 5519 5520 5521 5523 5524 5526 5527 5529
5527 5527 5527 5526 5525 5524 5522 5520 5519 5518 5517 5516 5513 5512 5510 5508 5507 5505 5504 5503 5502 5501 5505 5508 5505 5504 5503 5504 5504 5504 5504 5505 5507 5506 5507 5508 5509 5510 5511 5513 5514 5515 5517
5519 5518 5516 5516 5515 5513 5511 5510 5509 5507 5506 5505 5503 5501 5499 5496 5495 5493 5492 5491 5490 5489 5490 5494 5494 5492 5491 5490 5491 5492 5492 5493 5494 5495 5495 5496 5498 5499 5500 5501 5502 5503 5504
5509 5507 5506 5505 5504 5502 5500 5499 5498 5496 5495 5493 5491 5490 5488 5485 5484 5481 5479 5478 5477 5476 5476 5478 5480 5479 5479 5477 5478 5480 5480 5481 5482 5483 5484 5485 5486 5487 5488 5489 5490 5491 5492
5499 5498 5496 5495 5493 5492 5490 5488 5486 5485 5484 5482 5479 5477 5476 5474 5472 5470 5468 5466 5465 5464 5463 5463 5465 5466 5466 5465 5464 5466 5468 5469 5470 5471 5472 5473 5474 5475 5476 5478 5478 5479 5480
5489 5487 5486 5485 5483 5481 5479 5477 5476 5475 5473 5471 5469 5466 5465 5462 5459 5458 5456 5455 5453 5451 5451 5451 5452 5453 5454 5453 5452 5452 5453 5456 5458 5459 5460 5461 5462 5464 5465 5466 5466 5466 5467
5479 5477 5476 5475 5473 5471 5469 5466 5465 5464 5462 5461 5459 5457 5454 5451 5449 5446 5444 5442 5440 5440 5439 5438 5439 5440 5441 5439 5438 5438 5439 5441 5446 5446 5445 5448 5449 5452 5453 5454 5454 5454 5454
5470 5468 5467 5465 5463 5462 5459 5456 5454 5453 5452 5451 5449 5447 5444 5442 5438 5436 5434 5432 5430 5428 5426 5426 5427 5427 5427 5426 5425 5425 5425 5427 5430 5430 5430 5437 5437 5439 5440 5441 5441 5441 5442
5460 5459 5457 5455 5454 5452 5449 5447 5445 5443 5442 5441 5439 5437 5435 5432 5429 5426 5424 5423 5422 5419 5417 5415 5415 5414 5413 5412 5411 5411 5412 5413 5416 5417 5416 5421 5426 5427 5428 5429 5429 5429 5430
5451 5449 5447 5445 5444 5443 5440 5437 5434 5434 5433 5432 5429 5427 5424 5422 5420 5417 5415 5414 5413 5411 5408 5405 5404 5402 5401 5400 5399 5399 5400 5401 5405 5407 5404 5406 5411 5412 5415 5417 5417 5417 5417
5441 5439 5438 5436 5435 5434 5431 5428 5425 5425 5425 5423 5421 5418 5415 5413 5410 5408 5406 5405 5404 5403 5400 5398 5396 5394 5392 5391 5389 5387 5387 5388 5390 5393 5394 5392 5394 5394 5400 5405 5405 5405 5406